Time,TemperatureF,DewpointF,PressureIn,WindDirection,WindDirectionDegrees,WindSpeedMPH,WindSpeedGustMPH,Humidity,HourlyPrecipIn,Conditions,Clouds,dailyrainin,SoftwareType,DateUTC
2018-04-21 00:00:00,71.5,65.4,30.00,North,8,3.0,3.0,81,0.00,,,0.00,Wunderground v.1.15,2018-04-21 04:00:00,
2018-04-21 00:05:00,71.4,65.3,30.01,North,9,2.0,3.0,81,0.00,,,0.00,Wunderground v.1.15,2018-04-21 04:05:00,
2018-04-21 00:15:00,71.1,65.0,30.01,North,0,3.0,7.0,81,0.00,,,0.00,Wunderground v.1.15,2018-04-21 04:15:00,
2018-04-21 00:20:00,70.9,64.8,30.00,NNE,18,4.0,4.0,81,0.00,,,0.00,Wunderground v.1.15,2018-04-21 04:20:00,
2018-04-21 00:25:00,70.7,64.9,30.00,NNE,28,4.0,6.0,82,0.00,,,0.00,Wunderground v.1.15,2018-04-21 04:25:00,
2018-04-21 00:30:00,70.5,64.7,30.00,NNE,32,4.0,6.0,82,0.00,,,0.00,Wunderground v.1.15,2018-04-21 04:30:00,
2018-04-21 00:35:00,70.3,64.5,30.00,NNE,14,3.0,6.0,82,0.00,,,0.00,Wunderground v.1.15,2018-04-21 04:35:00,
2018-04-21 00:40:00,70.1,64.7,30.00,ENE,64,3.0,3.0,83,0.00,,,0.00,Wunderground v.1.15,2018-04-21 04:40:00,
2018-04-21 00:50:00,69.7,64.3,30.00,North,11,3.0,9.0,83,0.00,,,0.00,Wunderground v.1.15,2018-04-21 04:50:00,
2018-04-21 00:55:00,69.5,64.5,30.00,NNE,18,4.0,9.0,84,0.00,,,0.00,Wunderground v.1.15,2018-04-21 04:55:00,
2018-04-21 01:00:00,69.3,64.3,30.00,NNE,20,4.0,4.0,84,0.00,,,0.00,Wunderground v.1.15,2018-04-21 05:00:00,
2018-04-21 01:05:00,69.2,64.5,30.00,NNE,15,4.0,4.0,85,0.00,,,0.00,Wunderground v.1.15,2018-04-21 05:05:00,
2018-04-21 01:10:00,69.0,64.3,30.00,North,1,4.0,9.0,85,0.00,,,0.00,Wunderground v.1.15,2018-04-21 05:10:00,
2018-04-21 01:20:00,68.7,64.3,30.00,NNE,21,4.0,4.0,86,0.00,,,0.00,Wunderground v.1.15,2018-04-21 05:20:00,
2018-04-21 01:25:00,68.6,64.2,30.00,NNE,24,4.0,4.0,86,0.00,,,0.00,Wunderground v.1.15,2018-04-21 05:25:00,
2018-04-21 01:30:00,68.5,64.1,30.00,ENE,65,3.0,3.0,86,0.00,,,0.00,Wunderground v.1.15,2018-04-21 05:30:00,
2018-04-21 01:35:00,68.4,64.0,30.00,NNE,29,3.0,3.0,86,0.00,,,0.00,Wunderground v.1.15,2018-04-21 05:35:00,
2018-04-21 01:40:00,68.3,64.3,30.00,North,4,2.0,2.0,87,0.00,,,0.00,Wunderground v.1.15,2018-04-21 05:40:00,
2018-04-21 01:45:00,68.2,64.2,30.00,North,1,2.0,2.0,87,0.00,,,0.00,Wunderground v.1.15,2018-04-21 05:45:00,
2018-04-21 02:00:00,68.0,64.3,29.99,NE,34,1.0,4.0,88,0.00,,,0.00,Wunderground v.1.15,2018-04-21 06:00:00,
2018-04-21 02:05:00,68.0,64.3,29.99,North,359,2.0,6.0,88,0.00,,,0.00,Wunderground v.1.15,2018-04-21 06:05:00,
2018-04-21 02:10:00,68.0,64.3,29.99,North,1,2.0,4.0,88,0.00,,,0.00,Wunderground v.1.15,2018-04-21 06:10:00,
2018-04-21 02:20:00,68.0,64.3,30.00,North,8,4.0,4.0,88,0.00,,,0.00,Wunderground v.1.15,2018-04-21 06:20:00,
2018-04-21 02:25:00,68.0,64.3,30.00,NNE,14,4.0,4.0,88,0.00,,,0.00,Wunderground v.1.15,2018-04-21 06:25:00,
2018-04-21 02:30:00,68.0,64.3,30.00,NE,54,3.0,3.0,88,0.00,,,0.00,Wunderground v.1.15,2018-04-21 06:30:00,
2018-04-21 02:35:00,68.0,64.3,29.98,NNE,27,3.0,3.0,88,0.00,,,0.00,Wunderground v.1.15,2018-04-21 06:35:00,
2018-04-21 02:45:00,67.9,64.2,29.98,NNE,30,3.0,3.0,88,0.00,,,0.00,Wunderground v.1.15,2018-04-21 06:45:00,
2018-04-21 02:50:00,67.8,64.1,29.98,SSE,150,2.0,2.0,88,0.00,,,0.00,Wunderground v.1.15,2018-04-21 06:50:00,
2018-04-21 02:55:00,67.8,64.1,29.98,NE,38,2.0,5.0,88,0.00,,,0.00,Wunderground v.1.15,2018-04-21 06:55:00,
2018-04-21 03:00:00,67.8,64.1,29.98,NE,56,3.0,3.0,88,0.00,,,0.00,Wunderground v.1.15,2018-04-21 07:00:00,
2018-04-21 03:10:00,67.8,64.4,29.97,East,89,1.0,1.0,89,0.00,,,0.00,Wunderground v.1.15,2018-04-21 07:10:00,
2018-04-21 03:15:00,67.8,64.4,29.97,NE,49,1.0,1.0,89,0.00,,,0.00,Wunderground v.1.15,2018-04-21 07:15:00,
2018-04-21 03:20:00,67.7,64.3,29.97,ENE,68,0.0,1.0,89,0.00,,,0.00,Wunderground v.1.15,2018-04-21 07:20:00,
2018-04-21 03:25:00,67.7,64.3,29.97,ENE,72,1.0,1.0,89,0.00,,,0.00,Wunderground v.1.15,2018-04-21 07:25:00,
2018-04-21 03:35:00,67.7,64.3,29.97,NNE,27,2.0,2.0,89,0.00,,,0.00,Wunderground v.1.15,2018-04-21 07:35:00,
2018-04-21 03:40:00,67.7,64.3,29.97,NE,34,1.0,1.0,89,0.00,,,0.00,Wunderground v.1.15,2018-04-21 07:40:00,
2018-04-21 03:45:00,67.7,64.3,29.97,NNE,27,1.0,2.0,89,0.00,,,0.00,Wunderground v.1.15,2018-04-21 07:45:00,
2018-04-21 03:50:00,67.7,64.3,29.97,NNE,19,2.0,2.0,89,0.00,,,0.00,Wunderground v.1.15,2018-04-21 07:50:00,
2018-04-21 03:55:00,67.7,64.7,29.97,NE,56,1.0,2.0,90,0.00,,,0.00,Wunderground v.1.15,2018-04-21 07:55:00,
2018-04-21 04:05:00,67.7,64.7,29.97,East,80,1.0,1.0,90,0.00,,,0.00,Wunderground v.1.15,2018-04-21 08:05:00,